Location: Darlington Observatory
(36.4817°N, 105.8156°W)
Time: 07:44:06
(UTC-07:00)

MOS 1 - Visible Passes

Search period start: 23 January 2017 00:00
Search period end: 02 February 2017 00:00
Orbit: 879 x 891 km, 99.3° (Epoch: 22 January)

Date Brightness Start Highest point End Pass type
(mag) Time Alt. Az. Time Alt. Az. Time Alt. Az.
23 Jan 7.5 05:02:17 10° ENE 05:04:13 12° E 05:06:10 10° ESE visible
23 Jan 4.3 06:40:24 10° NNE 06:46:06 80° WNW 06:51:48 10° SSW visible
23 Jan 5.4 18:09:14 10° S 18:14:40 48° W 18:20:10 10° NNW visible
24 Jan 7.6 05:00:53 10° ENE 05:02:28 11° E 05:04:04 10° ESE visible
24 Jan 4.3 06:38:40 10° NNE 06:44:23 83° WNW 06:50:06 10° SSW visible
24 Jan 5.3 18:07:29 10° S 18:12:57 50° W 18:18:28 10° NNW visible
25 Jan 7.6 04:59:36 10° ENE 05:00:44 11° E 05:01:52 10° ESE visible
25 Jan 4.4 06:36:56 10° NNE 06:42:41 86° WNW 06:48:23 10° SSW visible
25 Jan 5.3 18:05:44 10° S 18:11:13 52° W 18:16:46 10° NNW visible
26 Jan 4.4 06:35:13 10° NNE 06:40:57 89° WNW 06:46:40 10° SSW visible
26 Jan 5.2 18:03:59 10° S 18:09:29 55° W 18:15:03 10° NNW visible
27 Jan 4.4 06:33:30 10° NNE 06:39:14 88° ESE 06:44:56 10° SSW visible
27 Jan 5.1 18:02:14 10° S 18:07:46 57° W 18:13:21 10° NNW visible
28 Jan 4.4 06:31:46 10° NNE 06:37:31 85° ESE 06:43:13 10° SSW visible
28 Jan 5.0 18:00:29 10° S 18:06:02 59° WSW 18:11:39 10° NNW visible
29 Jan 4.5 06:30:03 10° NNE 06:35:48 82° ESE 06:41:30 10° SSW visible
29 Jan 5.0 17:58:44 10° S 18:04:18 62° WSW 18:09:56 10° NNW visible
30 Jan 4.5 06:28:20 10° NNE 06:34:05 79° ESE 06:39:46 10° S visible
30 Jan 4.9 17:56:59 10° S 18:02:35 64° WSW 18:08:14 10° NNW visible
31 Jan 4.6 06:26:37 10° NNE 06:32:21 77° ESE 06:38:02 10° S visible
31 Jan 4.8 17:55:14 10° S 18:00:51 67° WSW 18:06:31 10° NNW visible
01 Feb 4.7 06:24:54 10° NNE 06:30:38 74° ESE 06:36:19 10° S visible
01 Feb 4.8 17:53:30 10° S 17:59:08 69° WSW 18:04:49 10° NNW visible
